Location: *
(58.7167°N, 26.1833°E)
Time: 11:54:34
(UTC+00:00)

Cosmos 2298 Rocket - Pass Details

Date: 25 August 2019
Orbit: 775 x 784 km, 74.0° (Epoch: 21 September)

Event Time Altitude Azimuth Distance (km) Brightness Sun altitude
Exits shadow 19:13:16 - 184° (S) 3,127 6.8 -11.3°
Reaches altitude 10° 19:15:23 10° 178° (S) 2,335 6.1 -11.5°
Maximum altitude 19:20:22 43° 108° (ESE) 1,089 4.4 -12.0°
Drops below altitude 10° 19:25:24 10° 39° (NE) 2,355 6.6 -12.4°
Sets 19:27:54 0° 33° (NNE) 3,288 7.5 -12.7°
